Zurück zum Katalog

STARLINK-4532

AktivKommunikationVLEO
NORAD 53424·PAYLOAD·🇺🇸 United States

Gestartet Aug 10, 2022 von Cape Canaveral Space Force Station

Loading…

Nächste Überflüge (nächste 24 Stunden)

TLE

AktuellSource: CelesTrak SupGP

Epoche: Sep 15, 2026, 03:05 UTC

1 53424C 22097AN  26258.12895833  .00039403  00000+0  12669-2 0  2582
2 53424  53.1569 331.8274 0000948 103.7788  45.0870 15.31687278    15

Verfolge STARLINK-4532 in Echtzeit mit AllMySat

Download on the App Store